Location: Dompnac
(44.5644°N, 4.1026°E)
Time: 15:16:03
(UTC+00:00)

Cosmos 1891 Rocket - Pass Details

Date: 20 January 2021
Orbit: 934 x 1018 km, 82.9° (Epoch: 05 March)

Event Time Altitude Azimuth Distance (km) Brightness Sun altitude
Rises 06:19:02 0° 225° (SW) 3,666 7.2 -9.8°
Reaches altitude 10° 06:22:05 10° 239° (WSW) 2,708 6.5 -9.2°
Maximum altitude 06:26:57 24° 291° (WNW) 1,881 5.4 -8.4°
Drops below altitude 10° 06:31:48 10° 344° (NNW) 2,680 6.5 -7.6°
Sets 06:34:50 0° 358° (N) 3,619 7.2 -7.1°
